N4JP MMUN-KRDU

Flight info

Callsign N4JP
Flight time N/A
Altitude 45000
Route CUN3A CUN UM219 MYDIA M219 KNOST Q109 CAMJO Q99 TEEEM DCT PETTO DMSTR2
Aircraft C750/M-SBDE3FGHRWXY/S

Departure

Time N/A
Airport Cancún International Airport (MMUN)

Arrival

Time 2026-05-06 23:17
Airport Raleigh-Durham International Airport (KRDU)
Time Latitude Longitude Altitude Speed Heading
2026-05-06 22:35 32.50607 -81.60152 44986 ft 504 kts 27°
2026-05-06 22:35 32.56238 -81.55248 45017 ft 504 kts 27°
2026-05-06 22:36 32.61864 -81.50347 45016 ft 504 kts 27°
2026-05-06 22:36 32.67524 -81.45406 45018 ft 506 kts 27°
2026-05-06 22:37 32.73201 -81.40442 45009 ft 507 kts 27°
2026-05-06 22:37 32.78874 -81.35472 44991 ft 507 kts 27°
2026-05-06 22:38 32.84552 -81.30492 44983 ft 506 kts 27°
2026-05-06 22:38 32.90217 -81.25515 44975 ft 507 kts 27°
2026-05-06 22:39 32.95882 -81.20529 44973 ft 506 kts 27°
2026-05-06 22:39 33.01551 -81.15532 44979 ft 506 kts 27°
2026-05-06 22:40 33.07267 -81.10737 44973 ft 504 kts 22°
2026-05-06 22:40 33.13251 -81.06281 44993 ft 510 kts 22°
2026-05-06 22:41 33.22323 -80.99432 44996 ft 516 kts 22°
2026-05-06 22:42 33.28413 -80.94845 45001 ft 518 kts 23°
2026-05-06 22:42 33.34523 -80.90224 45000 ft 520 kts 23°
2026-05-06 22:43 33.40648 -80.85593 45005 ft 521 kts 23°
2026-05-06 22:43 33.46737 -80.80968 44993 ft 516 kts 23°
2026-05-06 22:44 33.52814 -80.76366 45000 ft 516 kts 23°
2026-05-06 22:44 33.58879 -80.71745 44985 ft 516 kts 23°
2026-05-06 22:45 33.64916 -80.67154 44433 ft 521 kts 23°
2026-05-06 22:45 33.67960 -80.64828 43722 ft 514 kts 23°
2026-05-06 22:45 33.70953 -80.62529 43041 ft 506 kts 23°
2026-05-06 22:45 33.73891 -80.60283 42386 ft 496 kts 22°
2026-05-06 22:46 33.76784 -80.58079 41749 ft 487 kts 22°
2026-05-06 22:46 33.79619 -80.55912 41108 ft 479 kts 22°
2026-05-06 22:46 33.82407 -80.53772 40483 ft 471 kts 21°
2026-05-06 22:46 33.85142 -80.51673 39872 ft 463 kts 21°
2026-05-06 22:47 33.87836 -80.49608 39273 ft 455 kts 21°
2026-05-06 22:47 33.90487 -80.47577 38673 ft 453 kts 20°
2026-05-06 22:47 33.93204 -80.45516 38028 ft 475 kts 21°
2026-05-06 22:47 33.96049 -80.43343 37396 ft 491 kts 22°
2026-05-06 22:48 33.98970 -80.41072 36767 ft 509 kts 23°
2026-05-06 22:48 34.01944 -80.38766 36084 ft 518 kts 23°
2026-05-06 22:48 34.04969 -80.36429 35396 ft 514 kts 24°
2026-05-06 22:48 34.07966 -80.34120 34718 ft 510 kts 24°
2026-05-06 22:49 34.11002 -80.31793 34039 ft 522 kts 24°
2026-05-06 22:49 34.14057 -80.29430 33302 ft 518 kts 25°
2026-05-06 22:49 34.17074 -80.27074 32617 ft 517 kts 25°
2026-05-06 22:49 34.20145 -80.24708 31923 ft 526 kts 25°
2026-05-06 22:50 34.23226 -80.22332 31231 ft 525 kts 26°
2026-05-06 22:50 34.26321 -80.19927 30536 ft 533 kts 26°
2026-05-06 22:50 34.29452 -80.17491 29797 ft 539 kts 27°
2026-05-06 22:50 34.32601 -80.15041 29079 ft 535 kts 27°
2026-05-06 22:51 34.35723 -80.12613 28374 ft 531 kts 27°
2026-05-06 22:51 34.38812 -80.10210 27681 ft 526 kts 27°
2026-05-06 22:51 34.41877 -80.07824 26983 ft 522 kts 27°
2026-05-06 22:51 34.44918 -80.05452 26297 ft 513 kts 27°
2026-05-06 22:52 34.47829 -80.03167 25639 ft 483 kts 27°
2026-05-06 22:52 34.50575 -80.01017 25020 ft 457 kts 27°
2026-05-06 22:52 34.53188 -79.98984 24434 ft 435 kts 27°
2026-05-06 22:52 34.55689 -79.97036 23874 ft 417 kts 27°
2026-05-06 22:53 34.58083 -79.95161 23281 ft 406 kts 27°
2026-05-06 22:53 34.60436 -79.93319 22742 ft 399 kts 27°
2026-05-06 22:53 34.62761 -79.91500 22222 ft 397 kts 27°
2026-05-06 22:53 34.65051 -79.89706 21708 ft 397 kts 27°
2026-05-06 22:54 34.67381 -79.87877 21192 ft 397 kts 28°
2026-05-06 22:54 34.69629 -79.85962 20965 ft 386 kts 32°
2026-05-06 22:54 34.71811 -79.84020 20979 ft 394 kts 31°
2026-05-06 22:54 34.74065 -79.82099 20983 ft 396 kts 30°
2026-05-06 22:55 34.76314 -79.80135 20985 ft 399 kts 31°
2026-05-06 22:55 34.78547 -79.78130 20993 ft 399 kts 32°
2026-05-06 22:55 34.80795 -79.76131 20987 ft 400 kts 31°
2026-05-06 22:55 34.83134 -79.74334 20956 ft 394 kts 22°
2026-05-06 22:56 34.85609 -79.73068 20980 ft 391 kts 15°
2026-05-06 22:56 34.88170 -79.71959 20987 ft 390 kts 14°
2026-05-06 22:56 34.90699 -79.70718 20990 ft 394 kts 19°
2026-05-06 22:56 34.93167 -79.69237 20989 ft 395 kts 22°
2026-05-06 22:57 34.95634 -79.67768 20989 ft 394 kts 20°
2026-05-06 22:57 34.98140 -79.66430 20983 ft 397 kts 18°
2026-05-06 22:57 35.00656 -79.65100 20941 ft 392 kts 19°
2026-05-06 22:57 35.03141 -79.63702 20942 ft 393 kts 20°
2026-05-06 22:58 35.05619 -79.62290 20943 ft 393 kts 20°
2026-05-06 22:58 35.08113 -79.60912 20944 ft 394 kts 19°
2026-05-06 22:58 35.10612 -79.59544 20944 ft 393 kts 19°
2026-05-06 22:58 35.13102 -79.58158 20945 ft 394 kts 20°
2026-05-06 22:59 35.15593 -79.56761 20944 ft 394 kts 20°
2026-05-06 22:59 35.18085 -79.55373 20975 ft 394 kts 20°
2026-05-06 22:59 35.20552 -79.54004 20977 ft 393 kts 20°
2026-05-06 22:59 35.23048 -79.52614 20977 ft 394 kts 20°
2026-05-06 23:00 35.25546 -79.51218 20890 ft 397 kts 20°
2026-05-06 23:00 35.28066 -79.49811 20396 ft 397 kts 20°
2026-05-06 23:00 35.30561 -79.48415 19877 ft 392 kts 20°
2026-05-06 23:00 35.33031 -79.47034 19363 ft 389 kts 20°
2026-05-06 23:01 35.35443 -79.45545 18807 ft 389 kts 29°
2026-05-06 23:01 35.37558 -79.43478 18342 ft 388 kts 37°
2026-05-06 23:01 35.39624 -79.41351 17799 ft 387 kts 37°
2026-05-06 23:01 35.41698 -79.39269 17289 ft 384 kts 36°
2026-05-06 23:02 35.43767 -79.37211 16783 ft 382 kts 37°
2026-05-06 23:02 35.45810 -79.35154 16276 ft 380 kts 37°
2026-05-06 23:02 35.47842 -79.33091 15777 ft 377 kts 37°
2026-05-06 23:02 35.49863 -79.31048 15276 ft 375 kts 37°
2026-05-06 23:03 35.51882 -79.29015 14781 ft 373 kts 37°
2026-05-06 23:03 35.53858 -79.27021 14291 ft 371 kts 38°
2026-05-06 23:03 35.55840 -79.25013 13807 ft 369 kts 38°
2026-05-06 23:03 35.57820 -79.23008 13289 ft 367 kts 38°
2026-05-06 23:04 35.59778 -79.21027 12801 ft 363 kts 38°
2026-05-06 23:04 35.61721 -79.19057 12332 ft 361 kts 38°
2026-05-06 23:04 35.63560 -79.17000 11797 ft 352 kts 47°
2026-05-06 23:04 35.65005 -79.14672 11216 ft 335 kts 54°
2026-05-06 23:05 35.66322 -79.12355 10630 ft 325 kts 54°
2026-05-06 23:05 35.67620 -79.10148 10394 ft 313 kts 53°
2026-05-06 23:05 35.68922 -79.08014 10157 ft 312 kts 53°
2026-05-06 23:05 35.70216 -79.05866 9894 ft 314 kts 53°
2026-05-06 23:06 35.71509 -79.03685 9602 ft 316 kts 54°
2026-05-06 23:06 35.72806 -79.01503 9322 ft 315 kts 54°
2026-05-06 23:06 35.74105 -78.99330 9064 ft 314 kts 54°
2026-05-06 23:06 35.75372 -78.97207 8785 ft 300 kts 54°
2026-05-06 23:07 35.76582 -78.95175 8516 ft 288 kts 54°
2026-05-06 23:07 35.77745 -78.93221 8264 ft 277 kts 54°
2026-05-06 23:07 35.78827 -78.91293 8000 ft 271 kts 62°
2026-05-06 23:07 35.79282 -78.89110 7883 ft 257 kts 87°
2026-05-06 23:08 35.79475 -78.86950 7888 ft 264 kts 87°
2026-05-06 23:08 35.79699 -78.84679 7728 ft 269 kts 86°
2026-05-06 23:08 35.79934 -78.82384 7510 ft 271 kts 86°
2026-05-06 23:08 35.80159 -78.80091 7277 ft 266 kts 87°
2026-05-06 23:09 35.80375 -78.77859 7036 ft 261 kts 87°
2026-05-06 23:09 35.80588 -78.75651 6799 ft 259 kts 87°
2026-05-06 23:09 35.80808 -78.73448 6572 ft 256 kts 85°
2026-05-06 23:09 35.81445 -78.71425 6228 ft 257 kts 55°
2026-05-06 23:10 35.82652 -78.69850 6067 ft 251 kts 45°
2026-05-06 23:10 35.83897 -78.68351 5957 ft 249 kts 45°
2026-05-06 23:10 35.85150 -78.66814 5596 ft 257 kts 46°
2026-05-06 23:10 35.86408 -78.65250 5239 ft 256 kts 47°
2026-05-06 23:11 35.87657 -78.63704 4883 ft 253 kts 47°
2026-05-06 23:11 35.88894 -78.62175 4503 ft 250 kts 47°
2026-05-06 23:11 35.90126 -78.60692 4113 ft 246 kts 42°
2026-05-06 23:11 35.91709 -78.59917 3545 ft 247 kts
2026-05-06 23:12 35.93363 -78.60253 3126 ft 235 kts 341°
2026-05-06 23:12 35.94794 -78.60991 2684 ft 219 kts 318°
2026-05-06 23:12 35.95565 -78.62501 2156 ft 201 kts 280°
2026-05-06 23:12 35.95839 -78.64052 2198 ft 172 kts 276°
2026-05-06 23:13 35.95912 -78.65401 2139 ft 146 kts 254°
2026-05-06 23:13 35.95693 -78.66574 2179 ft 139 kts 252°
2026-05-06 23:13 35.95505 -78.67723 2184 ft 134 kts 252°
2026-05-06 23:13 35.95130 -78.68757 2195 ft 132 kts 236°
2026-05-06 23:14 35.94539 -78.69635 2217 ft 135 kts 223°
2026-05-06 23:14 35.93877 -78.70514 2052 ft 142 kts 224°
2026-05-06 23:14 35.93195 -78.71389 1867 ft 141 kts 224°
2026-05-06 23:14 35.92499 -78.72258 1679 ft 145 kts 223°
2026-05-06 23:15 35.91805 -78.73124 1497 ft 138 kts 222°
2026-05-06 23:15 35.91173 -78.73924 1356 ft 126 kts 221°
2026-05-06 23:15 35.90553 -78.74715 1140 ft 132 kts 223°
2026-05-06 23:15 35.89901 -78.75509 1037 ft 135 kts 223°
2026-05-06 23:16 35.89231 -78.76320 801 ft 134 kts 225°
2026-05-06 23:16 35.88580 -78.77125 662 ft 130 kts 224°
2026-05-06 23:16 35.87977 -78.77862 476 ft 117 kts 226°
2026-05-06 23:16 35.87447 -78.78525 428 ft 89 kts 225°
2026-05-06 23:17 35.87161 -78.78881 430 ft 33 kts 225°
2026-05-06 23:17 35.87053 -78.79010 432 ft 19 kts 228°
2026-05-06 23:17 35.87048 -78.79117 430 ft 13 kts 319°
2026-05-06 23:17 35.87070 -78.79140 433 ft 0 kts 322°
2026-05-06 23:18 35.87072 -78.79142 433 ft 0 kts 322°
2026-05-06 23:18 35.87083 -78.79144 427 ft 4 kts 356°
2026-05-06 23:19 35.87122 -78.79109 431 ft 10 kts 42°
2026-05-06 23:19 35.87187 -78.79035 428 ft 15 kts 44°
2026-05-06 23:19 35.87272 -78.78927 427 ft 20 kts 44°
2026-05-06 23:19 35.87382 -78.78792 432 ft 24 kts 45°
2026-05-06 23:20 35.87498 -78.78647 433 ft 23 kts 46°
2026-05-06 23:20 35.87611 -78.78509 426 ft 22 kts 44°
2026-05-06 23:20 35.87716 -78.78399 426 ft 13 kts 354°
2026-05-06 23:20 35.87790 -78.78385 427 ft 11 kts 35°
2026-05-06 23:21 35.87849 -78.78401 426 ft 10 kts 316°
2026-05-06 23:21 35.87903 -78.78445 429 ft 12 kts 352°
2026-05-06 23:21 35.88003 -78.78415 433 ft 15 kts 26°
2026-05-06 23:21 35.88048 -78.78372 426 ft 1 kts 44°
2026-05-06 23:22 35.88050 -78.78369 427 ft 0 kts 44°